Location: Madrid
(40.4167°N, 3.7036°W)
Time: 13:29:58
(UTC+00:00)

ISS - Pass Details

Date: 13 July 2024
Orbit: 410 x 424 km, 51.6° (Epoch: 14 July)

Event Time Altitude Azimuth Distance (km) Brightness Sun altitude
Rises 00:12:48 0° 311° (NW) 2,344 0.6 -27.8°
Reaches altitude 10° 00:15:38 10° 337° (NNW) 1,482 -0.2 -27.8°
Maximum altitude 00:17:32 14° 12° (NNE) 1,246 -0.5 -27.8°
Drops below altitude 10° 00:19:27 10° 48° (NE) 1,484 -0.5 -27.8°
Enters shadow 00:20:35 - 61° (ENE) 1,784 -0.2 -27.8°
